Location: Clay (historical)
(35.1476°N, 89.8179°W)
Time: 23:43:29
(UTC+00:00)

Cosmos 1356 Rocket - Pass Details

Date: 18 February 2026
Orbit: 515 x 557 km, 81.2° (Epoch: 7 March)

Event Time Altitude Azimuth Distance (km) Brightness Sun altitude
Rises 12:12:23 0° 184° (S) 2,618 6.9 -6.8°
Reaches altitude 10° 12:14:30 10° 183° (S) 1,734 6.0 -6.3°
Maximum altitude 12:18:18 79° 98° (E) 530 3.4 -5.6°
Drops below altitude 10° 12:22:08 10° 11° (N) 1,751 5.9 -4.8°
Sets 12:24:17 0° 10° (N) 2,646 6.8 -4.4°
